GEFSMA_850_meantemp_024.txt.gz
Temperature
-2 -2 -2 -2 -2 -2 -1 -0 0 1 2 3 4 5 7 8 9 9 10 11 12 12 13 13 14 14 14 15 15 15 15 15 16 16 16 16 16 16 16 16 16 16 16
-3 -3 -3 -4 -4 -4 -3 -3 -2 -1 -0 1 2 3 5 6 8 9 10 10 11 12 12 13 13 14 14 14 15 15 15 15 15 16 16 16 16 16 16 16 16 16 16
-4 -4 -4 -5 -5 -5 -5 -4 -4 -3 -2 -1 1 2 3 5 6 8 9 10 10 11 12 12 13 13 13 14 14 15 15 15 15 15 15 16 16 16 16 16 16 16 16
-5 -5 -5 -6 -6 -6 -6 -6 -6 -5 -4 -3 -1 1 2 3 5 6 7 9 9 10 11 11 12 12 13 13 14 14 14 15 15 15 15 15 16 16 16 16 16 16 16
-5 -6 -6 -7 -7 -7 -7 -7 -7 -7 -6 -5 -4 -2 0 2 4 5 6 7 8 9 10 10 11 12 12 12 13 13 14 14 14 14 14 14 15 15 16 16 16 16 16
-6 -7 -7 -8 -8 -8 -8 -8 -8 -7 -7 -7 -6 -4 -2 1 2 3 5 6 7 8 9 9 10 11 11 12 12 13 13 14 14 14 14 14 14 15 15 15 15 16 15
-7 -7 -8 -8 -9 -9 -9 -9 -9 -8 -8 -7 -7 -6 -2 -0 1 2 3 4 5 6 8 9 9 10 10 11 12 12 13 13 14 14 14 14 14 14 14 15 15 15 16
-8 -9 -9 -9 -10 -10 -10 -10 -9 -9 -9 -8 -7 -7 -5 -3 -1 1 2 2 3 4 6 8 8 9 10 10 11 11 12 12 13 14 14 14 14 14 14 14 15 15 16
-9 -9 -10 -10 -10 -10 -11 -10 -10 -10 -9 -8 -7 -7 -6 -5 -5 -2 -0 1 2 3 4 6 7 8 9 9 10 11 11 12 12 13 14 14 14 14 14 14 15 15 15
-9 -10 -10 -11 -11 -11 -11 -11 -11 -10 -10 -9 -8 -7 -7 -6 -6 -5 -3 -1 -0 1 3 4 6 7 8 9 10 10 11 11 12 12 13 14 14 14 14 14 14 15 15
-10 -11 -11 -11 -11 -11 -11 -11 -11 -10 -10 -9 -9 -8 -7 -6 -6 -6 -5 -4 -2 -0 1 3 5 7 8 9 9 10 10 11 11 12 13 13 14 14 14 14 14 15 15
-11 -11 -12 -12 -12 -12 -12 -12 -11 -11 -10 -9 -9 -8 -7 -7 -6 -6 -6 -5 -5 -2 -0 2 4 6 7 8 9 10 10 11 11 11 12 13 13 14 14 14 14 14 15
-12 -12 -13 -13 -13 -13 -12 -12 -11 -11 -10 -10 -9 -8 -8 -7 -7 -7 -6 -6 -5 -4 -2 1 3 4 6 7 8 9 10 10 11 11 12 12 13 13 13 14 14 14 15
-13 -13 -13 -13 -13 -13 -12 -12 -12 -11 -10 -10 -9 -9 -8 -8 -7 -7 -7 -6 -5 -4 -3 -2 1 3 5 6 8 8 9 10 10 11 11 12 12 13 13 13 14 14 14
-14 -14 -14 -14 -14 -13 -13 -12 -12 -11 -10 -10 -9 -9 -8 -8 -7 -7 -7 -6 -5 -4 -4 -3 -1 1 3 5 7 8 9 10 10 10 11 11 12 12 12 13 13 14 14
-14 -14 -14 -14 -14 -13 -13 -13 -12 -11 -10 -9 -9 -9 -8 -8 -7 -7 -7 -6 -5 -5 -4 -3 -2 -1 2 4 6 7 8 9 9 10 10 11 11 12 12 12 13 13 13
-14 -14 -14 -14 -14 -13 -13 -12 -12 -11 -10 -9 -9 -9 -8 -8 -7 -7 -6 -6 -5 -5 -4 -3 -3 -1 0 3 4 5 7 8 9 9 10 10 11 11 11 12 12 12 13
-14 -14 -14 -14 -13 -13 -13 -12 -11 -10 -10 -9 -9 -9 -8 -8 -7 -7 -6 -6 -5 -5 -4 -3 -3 -2 -0 1 3 4 5 7 8 9 9 10 10 11 11 11 12 12 12
-14 -14 -13 -13 -13 -13 -12 -11 -11 -10 -9 -9 -9 -9 -8 -8 -8 -7 -7 -6 -5 -5 -4 -3 -3 -2 -1 1 1 3 4 6 7 8 9 9 10 10 11 11 11 12 12
-13 -13 -13 -13 -13 -12 -11 -10 -10 -9 -9 -9 -9 -9 -9 -8 -8 -8 -7 -7 -6 -5 -4 -3 -3 -2 -1 -0 0 2 3 5 6 8 8 9 10 10 11 11 11 12 12
-13 -13 -13 -12 -12 -11 -10 -9 -9 -9 -9 -9 -9 -9 -9 -9 -9 -8 -8 -8 -7 -6 -5 -4 -3 -2 -1 -0 0 1 2 4 6 7 8 9 9 10 10 10 11 11 12
-13 -13 -12 -12 -11 -11 -9 -10 -10 -10 -10 -10 -10 -9 -9 -9 -9 -9 -9 -8 -8 -7 -7 -5 -4 -3 -2 -1 0 1 2 3 5 7 7 8 8 9 10 10 11 11 11
-13 -13 -12 -12 -11 -11 -10 -10 -10 -10 -10 -10 -10 -10 -10 -10 -10 -9 -9 -8 -8 -8 -8 -7 -6 -5 -3 -2 -0 1 2 3 4 6 7 7 8 8 9 10 10 11 11
-13 -13 -13 -12 -12 -11 -11 -11 -11 -11 -11 -11 -11 -11 -11 -10 -10 -10 -10 -9 -9 -8 -8 -7 -7 -6 -5 -3 -2 0 2 3 4 5 6 6 7 7 8 8 9 10 10
-13 -13 -13 -13 -12 -12 -11 -11 -12 -11 -11 -11 -11 -11 -11 -11 -11 -11 -10 -10 -9 -9 -8 -8 -7 -6 -5 -4 -2 -0 1 2 3 4 5 6 6 7 7 7 8 8 9
-13 -13 -13 -13 -13 -13 -12 -12 -12 -12 -12 -12 -12 -12 -12 -12 -12 -11 -11 -11 -11 -10 -8 -7 -7 -6 -5 -4 -3 -1 0 2 3 4 5 5 6 6 6 6 7 7 8

GEFSMA_850_meantemp_030.txt.gz
Temperature
-2 -2 -2 -2 -3 -3 -3 -2 -2 -2 -1 -1 -0 0 1 2 3 3 4 6 7 8 9 9 10 11 12 13 13 14 14 15 15 15 16 16 16 16 16 16 16 16 16
-3 -3 -4 -4 -4 -4 -4 -4 -4 -3 -3 -2 -1 -1 0 1 1 2 3 4 5 7 8 9 9 10 11 12 13 14 14 14 15 15 15 16 16 16 16 16 16 16 16
-5 -5 -5 -6 -6 -6 -6 -5 -5 -5 -4 -4 -3 -2 -1 -0 0 1 2 3 4 5 6 8 9 9 10 11 12 13 14 14 15 15 15 15 16 16 16 16 16 16 16
-6 -6 -7 -7 -7 -7 -7 -7 -6 -6 -5 -5 -4 -3 -2 -2 -1 0 1 2 3 4 5 6 8 9 10 11 11 12 13 14 14 15 15 15 15 15 15 16 16 16 16
-7 -7 -7 -8 -8 -8 -8 -8 -8 -8 -7 -6 -6 -5 -4 -3 -2 -1 -1 0 1 2 3 5 7 8 9 10 11 12 13 14 14 14 15 15 15 15 15 15 15 16 16
-8 -8 -8 -9 -9 -9 -9 -9 -9 -9 -9 -8 -8 -6 -5 -4 -3 -3 -3 -2 -1 -1 1 3 5 7 8 9 10 11 12 13 14 14 14 14 15 15 15 15 15 15 15
-9 -9 -10 -10 -10 -10 -11 -11 -10 -10 -10 -10 -9 -8 -6 -5 -4 -5 -4 -3 -3 -2 -1 1 3 5 7 8 9 10 11 12 13 13 14 14 14 15 15 15 15 15 15
-9 -10 -10 -11 -11 -12 -12 -11 -11 -11 -11 -11 -12 -11 -9 -8 -5 -5 -5 -4 -4 -3 -2 -0 1 3 5 7 8 9 10 12 12 13 13 14 14 14 14 15 15 15 15
-10 -11 -11 -12 -12 -13 -13 -13 -13 -13 -13 -12 -12 -12 -10 -9 -9 -7 -7 -6 -5 -4 -3 -1 0 2 4 6 7 8 9 11 12 12 12 13 13 14 14 14 14 15 15
-11 -11 -12 -12 -13 -13 -13 -13 -14 -13 -13 -13 -12 -12 -11 -11 -10 -9 -8 -7 -6 -5 -4 -2 -1 1 2 4 6 7 8 10 11 11 12 12 13 13 13 14 14 14 14
-11 -12 -13 -13 -13 -14 -14 -14 -14 -14 -14 -14 -13 -12 -11 -10 -10 -9 -8 -8 -7 -6 -4 -3 -2 -0 1 3 5 6 7 8 10 11 11 12 12 13 13 13 13 14 14
-12 -12 -13 -13 -13 -14 -14 -14 -14 -14 -14 -13 -13 -12 -12 -11 -10 -10 -9 -9 -8 -6 -5 -4 -3 -1 0 1 3 5 6 7 8 10 11 11 12 12 13 13 13 13 14
-12 -12 -13 -13 -13 -13 -13 -14 -14 -14 -13 -13 -13 -12 -11 -11 -10 -9 -9 -9 -8 -7 -6 -5 -4 -2 -1 -0 1 3 5 7 8 8 10 11 11 12 12 13 13 13 13
-13 -13 -13 -13 -13 -13 -13 -13 -14 -13 -13 -13 -12 -11 -11 -10 -10 -9 -9 -9 -8 -8 -7 -6 -4 -3 -2 -1 1 2 4 6 7 7 9 10 11 11 12 13 13 13 13
-13 -12 -12 -12 -13 -13 -13 -13 -13 -13 -13 -12 -12 -11 -10 -10 -9 -9 -9 -9 -8 -8 -7 -6 -5 -3 -2 -1 0 2 4 5 6 7 8 9 10 11 12 12 13 13 12
-12 -12 -12 -12 -12 -12 -12 -13 -13 -12 -12 -11 -11 -10 -10 -9 -9 -9 -9 -8 -8 -8 -7 -6 -6 -4 -3 -2 -0 1 3 5 6 7 7 9 10 11 11 12 12 12 12
-12 -12 -11 -11 -11 -11 -11 -12 -11 -11 -11 -11 -10 -10 -10 -9 -9 -9 -8 -8 -8 -8 -7 -6 -5 -4 -3 -2 -0 1 2 4 6 7 7 8 9 10 11 11 12 12 12
-12 -11 -11 -11 -11 -11 -11 -11 -11 -11 -11 -10 -10 -10 -10 -9 -9 -9 -9 -8 -8 -8 -8 -7 -5 -4 -3 -2 -1 1 2 4 5 6 7 8 9 10 10 11 12 12 12
-12 -11 -11 -11 -10 -11 -11 -10 -10 -10 -10 -10 -10 -10 -10 -10 -10 -9 -9 -9 -9 -8 -8 -7 -6 -4 -3 -2 -1 0 2 3 5 6 7 8 9 9 10 11 11 12 12
-12 -12 -11 -11 -10 -10 -11 -11 -10 -10 -10 -10 -10 -10 -10 -10 -10 -10 -10 -10 -9 -9 -8 -7 -6 -5 -4 -2 -2 -0 2 3 4 6 7 8 8 9 10 10 11 11 12
-12 -12 -12 -11 -10 -10 -10 -11 -11 -11 -11 -10 -10 -10 -10 -10 -10 -10 -10 -10 -10 -9 -9 -8 -7 -6 -4 -3 -2 -1 1 2 4 5 7 7 8 9 9 10 10 11 11
-12 -12 -12 -12 -11 -11 -11 -11 -12 -11 -11 -11 -11 -11 -11 -11 -11 -11 -11 -11 -10 -10 -10 -9 -9 -7 -6 -5 -3 -2 -1 2 3 5 6 7 7 8 9 9 10 11 11
-13 -13 -12 -12 -12 -11 -11 -12 -12 -12 -12 -12 -12 -12 -12 -12 -11 -11 -11 -10 -10 -10 -10 -10 -9 -8 -7 -6 -4 -3 -2 0 2 3 5 6 7 7 8 9 10 10 11
-13 -13 -13 -13 -12 -12 -11 -12 -12 -12 -12 -12 -13 -13 -13 -12 -12 -11 -11 -11 -11 -10 -10 -10 -10 -9 -8 -6 -5 -4 -2 -0 1 3 4 5 6 7 7 8 9 10 10
-12 -13 -13 -13 -13 -12 -12 -12 -12 -12 -13 -13 -13 -13 -13 -13 -12 -12 -12 -12 -11 -10 -10 -10 -9 -9 -7 -6 -5 -4 -2 -1 1 2 3 4 5 6 7 7 8 9 10
-12 -13 -13 -13 -13 -13 -12 -12 -12 -12 -13 -13 -13 -14 -13 -13 -13 -13 -13 -13 -12 -11 -10 -9 -8 -8 -7 -6 -5 -4 -3 -2 -0 1 2 3 5 5 6 7 7 8 9

GEFSMA_850_meantemp_036.txt.gz
Temperature
-3 -3 -4 -4 -5 -5 -6 -5 -5 -5 -5 -5 -5 -4 -4 -3 -3 -2 -2 -0 2 3 4 4 4 5 7 8 9 10 11 12 13 14 15 15 15 16 16 16 16 16 17
-5 -5 -6 -6 -7 -7 -7 -8 -8 -7 -7 -7 -6 -6 -5 -4 -4 -3 -3 -2 0 2 2 3 4 4 5 6 8 9 10 11 12 13 14 15 15 15 16 16 16 16 16
-6 -7 -7 -7 -8 -8 -9 -9 -9 -9 -9 -9 -8 -7 -7 -6 -5 -4 -3 -3 -2 -0 1 2 2 3 3 4 6 7 9 10 11 12 13 14 15 15 15 16 16 16 16
-7 -7 -8 -9 -9 -10 -10 -10 -10 -10 -10 -10 -9 -9 -8 -7 -6 -5 -4 -3 -3 -2 -1 -0 0 1 2 3 4 6 8 9 10 12 13 14 14 15 15 15 15 16 16
-7 -8 -9 -10 -10 -10 -10 -11 -11 -11 -11 -11 -10 -10 -9 -8 -7 -6 -5 -4 -4 -3 -3 -2 -1 -0 1 2 4 5 7 8 9 11 12 13 14 15 15 15 15 16 16
-8 -9 -10 -10 -11 -11 -11 -11 -11 -11 -11 -11 -11 -11 -10 -9 -7 -6 -5 -5 -4 -3 -3 -3 -3 -2 -0 1 3 4 6 8 9 10 11 13 14 14 15 15 15 15 16
-9 -9 -10 -10 -11 -11 -11 -12 -12 -12 -12 -12 -11 -11 -10 -9 -7 -6 -6 -5 -4 -4 -4 -4 -3 -2 -2 -0 2 4 6 7 8 9 11 12 13 14 14 15 15 15 15
-9 -10 -10 -11 -11 -12 -12 -12 -12 -12 -12 -12 -12 -12 -11 -9 -6 -7 -7 -6 -5 -4 -4 -4 -4 -3 -2 -1 0 3 5 7 8 9 10 11 12 13 14 14 15 15 15
-10 -10 -11 -11 -11 -12 -12 -12 -12 -12 -12 -12 -12 -12 -12 -10 -10 -9 -7 -6 -6 -5 -5 -4 -4 -3 -3 -2 -1 1 4 5 7 8 9 11 12 13 14 14 14 15 15
-10 -10 -11 -11 -11 -12 -12 -12 -12 -13 -13 -13 -13 -12 -12 -12 -12 -11 -9 -7 -7 -6 -5 -5 -4 -4 -3 -2 -1 0 2 4 6 7 9 10 11 12 13 14 14 14 15
-10 -11 -11 -11 -11 -12 -12 -12 -12 -12 -13 -13 -13 -13 -13 -12 -12 -11 -10 -8 -7 -6 -6 -5 -5 -4 -3 -3 -2 -0 1 3 4 6 8 9 10 12 13 14 14 14 15
-10 -10 -11 -11 -11 -11 -11 -12 -12 -12 -12 -13 -13 -13 -13 -12 -12 -11 -10 -9 -8 -7 -6 -5 -5 -4 -4 -3 -2 -1 0 2 4 5 7 8 10 11 12 13 14 14 14
-11 -10 -11 -11 -11 -11 -11 -11 -11 -12 -12 -12 -12 -12 -12 -12 -12 -11 -11 -10 -8 -7 -6 -5 -4 -4 -4 -3 -3 -2 -0 2 3 5 6 8 9 10 12 13 13 14 14
-11 -11 -11 -11 -11 -11 -11 -11 -11 -11 -11 -12 -12 -12 -12 -12 -11 -11 -10 -10 -9 -7 -6 -5 -4 -4 -4 -4 -3 -2 -1 1 2 4 6 7 8 10 11 12 13 13 14
-11 -11 -11 -11 -11 -11 -11 -11 -11 -11 -11 -11 -11 -11 -11 -11 -10 -10 -10 -10 -9 -8 -7 -5 -5 -5 -5 -4 -3 -3 -1 0 2 3 5 6 7 9 10 11 12 13 13
-11 -11 -11 -11 -11 -11 -11 -11 -11 -11 -11 -11 -11 -10 -10 -10 -10 -10 -9 -9 -9 -9 -8 -7 -6 -5 -5 -4 -4 -3 -1 -0 2 3 5 6 7 8 9 10 11 12 13
-11 -12 -12 -11 -11 -11 -11 -11 -11 -11 -11 -11 -11 -11 -10 -10 -10 -10 -9 -9 -9 -9 -8 -7 -7 -6 -6 -5 -4 -3 -2 -0 1 3 4 5 7 8 9 10 11 11 12
-11 -12 -12 -12 -11 -11 -11 -11 -12 -12 -11 -11 -11 -11 -11 -11 -10 -10 -10 -9 -9 -9 -9 -8 -7 -7 -6 -5 -4 -3 -1 -0 1 2 4 5 6 7 8 9 10 11 11
-11 -12 -12 -12 -12 -11 -11 -12 -12 -12 -12 -12 -12 -12 -11 -11 -11 -10 -10 -10 -10 -9 -9 -9 -8 -7 -6 -5 -4 -3 -2 -0 1 2 3 5 6 7 8 9 10 11 11
-11 -11 -12 -12 -12 -11 -11 -12 -12 -12 -12 -12 -12 -12 -12 -12 -11 -11 -10 -10 -10 -10 -9 -9 -8 -8 -7 -6 -5 -3 -2 -1 1 2 3 4 5 7 7 8 9 10 11
-11 -11 -11 -11 -11 -11 -11 -11 -12 -12 -12 -12 -12 -12 -12 -12 -11 -11 -11 -11 -11 -10 -10 -9 -9 -8 -8 -7 -6 -4 -2 -1 1 2 3 4 5 6 7 8 9 10 11
-10 -11 -11 -11 -11 -11 -11 -11 -11 -12 -12 -12 -12 -13 -12 -12 -12 -11 -11 -11 -11 -11 -11 -10 -10 -10 -9 -8 -7 -5 -4 -1 1 2 3 4 5 6 7 8 9 10 11
-10 -10 -11 -11 -11 -11 -11 -11 -11 -11 -12 -12 -12 -13 -12 -12 -12 -11 -12 -12 -12 -12 -11 -11 -11 -11 -10 -9 -8 -6 -4 -3 -0 2 3 4 5 6 7 8 8 9 10
-10 -10 -10 -11 -11 -11 -11 -11 -11 -11 -11 -12 -12 -13 -13 -12 -12 -11 -12 -12 -12 -12 -12 -11 -11 -11 -10 -9 -8 -7 -5 -3 -1 1 2 4 5 6 6 7 8 9 10
-9 -10 -10 -10 -10 -10 -10 -10 -11 -11 -11 -12 -12 -12 -13 -12 -12 -12 -12 -12 -12 -12 -11 -11 -11 -11 -10 -9 -8 -6 -5 -3 -1 1 2 3 4 5 6 7 8 9 10
-9 -9 -10 -10 -10 -10 -10 -10 -10 -10 -11 -11 -12 -12 -13 -13 -13 -13 -13 -13 -12 -12 -11 -10 -10 -10 -9 -8 -7 -6 -5 -3 -2 0 2 3 4 5 6 6 7 8 9

GEFSMA_850_meantemp_042.txt.gz
Temperature
-1 -2 -3 -4 -4 -5 -6 -6 -6 -6 -6 -6 -6 -6 -6 -6 -6 -7 -7 -6 -6 -5 -4 -3 -1 -1 0 1 2 3 4 6 8 9 10 11 12 13 14 15 15 16 16
-2 -3 -4 -4 -6 -6 -7 -7 -7 -7 -8 -8 -8 -8 -8 -8 -7 -8 -8 -7 -7 -6 -5 -4 -2 -1 -0 0 1 2 3 4 6 8 9 11 11 12 13 14 15 15 16
-3 -4 -5 -5 -6 -7 -7 -8 -8 -8 -8 -9 -9 -9 -9 -9 -9 -9 -9 -8 -8 -7 -6 -4 -3 -2 -1 -0 1 1 2 3 4 6 8 9 11 12 13 14 15 15 15
-4 -5 -5 -6 -7 -8 -8 -8 -9 -9 -9 -9 -10 -10 -10 -10 -9 -9 -9 -9 -9 -8 -7 -6 -4 -3 -2 -1 0 1 2 2 3 5 6 8 10 11 12 13 14 15 15
-4 -5 -6 -7 -8 -8 -8 -9 -9 -9 -10 -10 -10 -10 -10 -10 -10 -10 -10 -10 -9 -8 -7 -6 -5 -4 -2 -1 -0 0 1 2 2 4 5 7 8 10 11 12 13 14 15
-5 -6 -7 -7 -8 -9 -9 -9 -9 -10 -10 -10 -10 -10 -10 -10 -10 -10 -10 -10 -9 -9 -7 -6 -5 -4 -3 -2 -1 -0 0 1 2 3 4 6 7 9 10 12 13 14 14
-6 -6 -7 -8 -9 -9 -9 -9 -10 -10 -10 -10 -10 -11 -11 -10 -10 -11 -10 -10 -10 -9 -8 -7 -6 -5 -4 -3 -2 -1 -0 0 1 2 3 4 6 8 10 11 12 13 14
-6 -7 -8 -8 -9 -9 -9 -10 -10 -10 -10 -10 -11 -11 -11 -11 -10 -10 -11 -11 -10 -10 -9 -8 -7 -6 -5 -4 -3 -3 -2 -1 0 1 2 3 5 7 9 10 12 13 14
-7 -7 -8 -9 -9 -10 -10 -10 -10 -10 -10 -10 -10 -11 -11 -11 -11 -11 -11 -11 -11 -10 -9 -8 -7 -6 -5 -4 -4 -3 -3 -2 -1 0 1 3 4 6 8 10 11 12 13
-7 -8 -8 -9 -9 -10 -10 -10 -10 -10 -11 -11 -10 -11 -11 -11 -11 -11 -11 -10 -11 -10 -10 -9 -8 -7 -6 -5 -4 -4 -3 -2 -1 -0 1 2 3 5 7 9 10 12 13
-7 -8 -9 -9 -10 -10 -10 -10 -10 -10 -10 -11 -11 -11 -11 -11 -11 -11 -11 -10 -10 -9 -9 -9 -8 -7 -6 -5 -4 -4 -3 -2 -2 -1 0 1 3 4 6 8 9 11 12
-7 -8 -9 -9 -10 -10 -10 -11 -11 -10 -10 -11 -11 -11 -11 -11 -11 -11 -11 -11 -11 -10 -9 -9 -8 -7 -6 -5 -4 -4 -3 -3 -2 -1 -0 1 2 4 5 7 9 10 12
-7 -8 -9 -10 -10 -10 -11 -11 -11 -11 -11 -11 -11 -11 -11 -11 -11 -11 -11 -11 -10 -10 -9 -9 -8 -7 -7 -6 -5 -4 -4 -3 -3 -2 -1 -0 1 3 5 6 8 10 11
-7 -8 -9 -10 -10 -11 -11 -11 -11 -11 -11 -11 -11 -11 -11 -11 -11 -11 -11 -11 -10 -10 -9 -9 -8 -8 -7 -6 -6 -5 -4 -4 -3 -2 -2 -0 1 2 4 6 8 9 11
-8 -8 -9 -10 -10 -11 -11 -11 -11 -11 -11 -11 -11 -11 -11 -11 -11 -11 -11 -11 -10 -10 -9 -9 -9 -8 -8 -7 -6 -6 -5 -4 -4 -3 -2 -1 1 2 4 5 7 9 10
-7 -8 -9 -10 -10 -11 -11 -11 -11 -11 -11 -11 -11 -11 -11 -11 -11 -11 -11 -11 -10 -10 -10 -9 -9 -9 -8 -8 -7 -6 -5 -5 -4 -3 -2 -1 0 2 3 5 6 8 9
-7 -8 -9 -10 -10 -11 -11 -12 -11 -11 -11 -11 -11 -11 -12 -12 -12 -12 -11 -11 -11 -10 -10 -10 -9 -9 -8 -8 -7 -6 -6 -5 -4 -3 -2 -1 0 1 3 5 6 7 9
-7 -8 -9 -9 -10 -11 -11 -11 -11 -11 -11 -11 -11 -11 -12 -12 -12 -12 -11 -11 -11 -11 -11 -11 -10 -9 -9 -8 -8 -7 -6 -5 -4 -3 -2 -1 0 1 3 4 6 7 9
-7 -8 -9 -9 -10 -10 -11 -11 -11 -11 -11 -11 -11 -11 -12 -12 -12 -12 -11 -11 -11 -11 -11 -11 -11 -10 -10 -9 -8 -7 -6 -5 -4 -3 -2 -1 0 1 3 4 6 7 8
-7 -8 -9 -9 -9 -10 -10 -10 -10 -10 -10 -10 -11 -11 -12 -12 -12 -12 -11 -11 -11 -11 -11 -11 -11 -11 -10 -10 -9 -8 -7 -5 -4 -3 -2 -1 0 1 3 4 6 7 8
-7 -8 -8 -9 -9 -9 -9 -10 -10 -9 -10 -10 -10 -11 -11 -12 -11 -11 -11 -11 -11 -11 -11 -11 -11 -11 -11 -11 -10 -10 -8 -6 -4 -3 -2 -1 1 2 3 4 5 7 8
-6 -7 -8 -9 -9 -9 -10 -9 -9 -9 -9 -10 -10 -11 -11 -12 -12 -11 -11 -11 -11 -11 -11 -11 -11 -11 -11 -11 -11 -10 -10 -8 -6 -3 -2 -1 0 2 3 4 5 7 8
-6 -7 -8 -9 -9 -9 -9 -9 -8 -8 -9 -10 -10 -11 -11 -12 -12 -12 -12 -12 -12 -12 -12 -11 -11 -12 -11 -11 -11 -10 -10 -9 -7 -4 -3 -1 1 2 3 4 6 7 8
-6 -7 -8 -8 -9 -9 -9 -9 -8 -8 -9 -10 -10 -11 -11 -12 -12 -11 -11 -12 -12 -12 -12 -12 -12 -12 -11 -11 -11 -10 -10 -8 -6 -3 -3 -2 1 2 3 4 5 6 8
-5 -6 -7 -8 -9 -9 -9 -9 -8 -9 -9 -10 -10 -11 -11 -12 -12 -11 -12 -12 -12 -12 -12 -12 -12 -12 -11 -11 -10 -10 -9 -9 -7 -3 -2 -2 1 2 3 4 5 6 7
-5 -6 -7 -8 -9 -9 -9 -9 -8 -9 -9 -10 -10 -11 -12 -12 -11 -11 -12 -12 -12 -12 -12 -12 -12 -12 -11 -11 -11 -10 -10 -9 -8 -5 -2 -1 0 2 3 4 5 6 7

GEFSMA_850_meantemp_048.txt.gz
Temperature
1 -0 -1 -2 -3 -3 -4 -5 -5 -5 -5 -6 -6 -6 -6 -6 -6 -6 -6 -6 -6 -7 -7 -7 -7 -6 -5 -5 -3 -2 -1 -0 1 2 3 4 6 8 10 12 13 13 14
-0 -1 -2 -2 -3 -4 -5 -5 -6 -6 -6 -6 -7 -7 -7 -6 -6 -7 -7 -7 -7 -7 -8 -8 -7 -7 -6 -6 -5 -3 -2 -1 0 1 2 3 5 6 8 10 12 13 14
-1 -2 -2 -3 -4 -4 -5 -5 -6 -6 -7 -7 -7 -7 -7 -7 -7 -7 -7 -8 -8 -8 -8 -8 -8 -8 -7 -7 -6 -4 -3 -2 -0 1 2 3 4 5 7 9 10 12 13
-1 -2 -3 -3 -4 -4 -5 -6 -6 -7 -7 -7 -8 -8 -8 -8 -8 -8 -8 -8 -8 -8 -9 -9 -9 -9 -8 -7 -7 -5 -4 -3 -1 0 1 2 3 4 6 7 9 11 12
-2 -2 -3 -3 -4 -5 -5 -6 -7 -8 -8 -8 -9 -9 -9 -8 -8 -8 -8 -8 -9 -9 -9 -9 -10 -9 -9 -8 -7 -6 -5 -3 -2 -0 1 2 3 4 5 6 8 10 11
-2 -2 -3 -3 -4 -5 -6 -7 -7 -8 -8 -9 -9 -9 -9 -9 -8 -9 -9 -9 -9 -9 -9 -10 -10 -10 -10 -9 -8 -7 -5 -4 -2 -1 1 2 3 3 4 5 7 9 10
-2 -3 -3 -4 -5 -5 -6 -7 -8 -9 -9 -9 -10 -10 -10 -9 -9 -9 -10 -10 -9 -9 -10 -10 -10 -10 -10 -9 -9 -7 -6 -4 -3 -1 0 1 2 3 4 5 6 8 9
-2 -3 -3 -4 -5 -6 -7 -8 -9 -9 -9 -10 -11 -11 -11 -11 -10 -10 -10 -10 -10 -10 -10 -10 -10 -10 -10 -9 -9 -8 -7 -5 -3 -2 -0 1 2 3 3 4 5 7 8
-2 -3 -4 -4 -5 -6 -7 -8 -9 -9 -10 -10 -11 -11 -12 -11 -11 -11 -10 -10 -10 -10 -10 -10 -10 -10 -10 -9 -9 -8 -7 -6 -4 -2 -1 0 1 2 3 4 5 6 8
-2 -3 -4 -5 -6 -7 -8 -8 -9 -10 -10 -11 -11 -11 -11 -12 -12 -12 -11 -11 -11 -11 -11 -11 -10 -10 -10 -9 -9 -8 -7 -6 -5 -3 -2 -0 1 2 3 3 4 5 7
-2 -3 -4 -5 -6 -7 -8 -9 -9 -10 -10 -11 -11 -11 -11 -11 -12 -12 -12 -12 -11 -11 -11 -11 -10 -10 -10 -9 -9 -8 -7 -6 -5 -4 -3 -1 -0 1 2 3 4 5 6
-2 -3 -4 -5 -6 -7 -8 -9 -9 -10 -10 -11 -11 -11 -11 -12 -12 -12 -13 -13 -12 -12 -11 -11 -11 -10 -10 -9 -9 -8 -7 -6 -5 -4 -3 -2 -1 -0 1 2 3 4 6
-2 -3 -4 -5 -6 -7 -8 -9 -9 -10 -10 -11 -11 -11 -11 -11 -11 -12 -13 -13 -13 -12 -12 -11 -11 -10 -10 -9 -9 -8 -8 -7 -6 -5 -4 -3 -2 -1 0 1 2 4 5
-2 -3 -4 -5 -6 -7 -8 -9 -9 -9 -10 -10 -10 -10 -11 -11 -11 -12 -12 -13 -13 -13 -12 -12 -11 -11 -10 -10 -9 -9 -8 -7 -6 -5 -4 -3 -3 -2 -1 0 1 3 4
-3 -3 -4 -5 -6 -7 -8 -9 -9 -9 -9 -10 -10 -10 -10 -10 -11 -11 -12 -12 -13 -13 -12 -12 -11 -11 -10 -10 -10 -9 -9 -8 -7 -6 -5 -4 -3 -2 -2 -1 1 2 3
-3 -4 -4 -5 -6 -7 -8 -8 -9 -9 -9 -9 -9 -10 -10 -10 -11 -11 -11 -12 -12 -13 -13 -12 -12 -11 -11 -10 -10 -10 -9 -8 -7 -6 -5 -4 -4 -3 -2 -1 -0 1 2
-3 -4 -4 -5 -6 -7 -8 -8 -9 -9 -9 -9 -9 -9 -10 -10 -11 -11 -11 -12 -12 -12 -13 -12 -12 -11 -11 -10 -10 -10 -9 -8 -7 -6 -6 -5 -4 -4 -3 -2 -1 0 2
-3 -4 -4 -5 -6 -6 -7 -8 -8 -8 -9 -9 -9 -9 -9 -10 -10 -11 -11 -12 -12 -12 -12 -12 -12 -11 -11 -11 -11 -10 -10 -9 -8 -7 -6 -5 -4 -4 -3 -2 -1 -0 1
-3 -4 -4 -5 -5 -6 -7 -8 -8 -8 -8 -8 -9 -9 -10 -10 -10 -11 -11 -11 -11 -11 -11 -12 -12 -11 -11 -11 -11 -11 -10 -9 -8 -7 -6 -5 -4 -4 -3 -2 -1 -0 1
-3 -3 -4 -5 -5 -6 -7 -7 -8 -8 -8 -8 -9 -9 -10 -10 -10 -11 -11 -11 -11 -11 -11 -11 -12 -12 -12 -11 -11 -11 -11 -9 -8 -7 -6 -5 -4 -4 -3 -2 -1 -0 1
-3 -4 -4 -4 -5 -6 -6 -7 -8 -8 -8 -8 -9 -9 -10 -10 -11 -11 -11 -11 -11 -11 -11 -11 -12 -12 -12 -12 -12 -12 -11 -10 -8 -7 -6 -5 -5 -4 -3 -2 -1 -0 1
-3 -4 -4 -4 -5 -5 -6 -7 -9 -8 -8 -9 -9 -9 -10 -10 -11 -11 -11 -11 -11 -11 -11 -11 -12 -12 -12 -12 -12 -12 -12 -11 -11 -8 -8 -6 -5 -4 -2 -2 -1 0 1
-3 -3 -4 -4 -5 -5 -6 -8 -8 -8 -8 -9 -9 -10 -10 -11 -11 -10 -10 -11 -11 -11 -11 -12 -12 -12 -12 -12 -12 -12 -11 -11 -11 -9 -9 -6 -4 -3 -2 -1 -1 0 1
-3 -3 -4 -4 -5 -5 -6 -7 -8 -8 -9 -9 -9 -10 -10 -10 -10 -10 -10 -10 -11 -11 -12 -12 -12 -12 -12 -12 -11 -11 -11 -11 -10 -9 -9 -8 -4 -3 -2 -1 -0 1 2
-3 -3 -4 -4 -5 -5 -6 -7 -8 -9 -9 -9 -9 -10 -10 -10 -10 -9 -10 -11 -11 -11 -12 -12 -12 -12 -12 -12 -12 -11 -11 -11 -11 -9 -8 -8 -5 -3 -2 -1 0 1 2
-3 -3 -4 -4 -5 -5 -6 -7 -8 -9 -9 -9 -9 -10 -10 -10 -10 -10 -11 -11 -12 -11 -12 -12 -12 -12 -12 -12 -12 -12 -12 -12 -12 -10 -8 -8 -6 -5 -2 -0 0 1 2

GEFSMA_850_meantemp_054.txt.gz
Temperature
3 3 2 2 2 1 1 1 -0 -1 -2 -2 -3 -4 -4 -5 -5 -5 -6 -6 -6 -6 -6 -6 -6 -6 -5 -5 -5 -4 -4 -4 -3 -2 -2 -1 -0 1 2 3 4 6 8
3 2 2 2 1 1 0 -0 -1 -2 -3 -4 -4 -5 -5 -5 -6 -6 -6 -6 -6 -7 -7 -7 -7 -7 -6 -6 -5 -5 -5 -4 -4 -3 -3 -2 -1 0 1 2 4 5 6
3 2 2 1 1 -0 -1 -1 -2 -3 -4 -5 -5 -5 -5 -5 -6 -6 -6 -7 -7 -7 -7 -8 -8 -8 -7 -7 -6 -6 -6 -5 -5 -4 -4 -3 -2 -1 0 2 3 4 5
2 2 1 1 0 -1 -1 -2 -3 -3 -4 -5 -5 -5 -5 -5 -6 -6 -6 -7 -7 -8 -8 -8 -8 -8 -8 -8 -7 -7 -6 -6 -5 -5 -4 -3 -3 -2 -0 1 2 3 4
2 2 1 0 -0 -1 -2 -3 -3 -4 -5 -6 -6 -5 -5 -5 -5 -6 -7 -7 -8 -8 -8 -8 -9 -9 -9 -9 -8 -7 -7 -6 -6 -5 -5 -4 -3 -2 -1 0 1 3 4
2 1 1 0 -1 -1 -2 -3 -4 -4 -5 -6 -7 -6 -5 -5 -5 -6 -7 -7 -8 -8 -8 -9 -9 -9 -9 -9 -9 -8 -8 -7 -6 -6 -5 -4 -3 -2 -1 -0 1 2 3
2 1 1 0 -1 -1 -2 -3 -4 -4 -4 -6 -7 -7 -6 -5 -6 -6 -7 -7 -8 -8 -9 -9 -9 -9 -9 -9 -9 -9 -9 -8 -7 -6 -5 -5 -4 -3 -2 -0 1 2 3
2 1 1 0 -1 -2 -2 -3 -4 -5 -5 -6 -8 -9 -9 -8 -8 -8 -7 -8 -8 -8 -9 -9 -9 -9 -10 -10 -10 -10 -9 -8 -7 -6 -5 -5 -4 -3 -2 -1 1 2 3
2 1 1 0 -1 -2 -2 -3 -4 -5 -6 -6 -7 -9 -10 -10 -11 -9 -8 -8 -8 -9 -9 -9 -9 -10 -10 -10 -10 -10 -9 -9 -8 -7 -6 -5 -4 -3 -2 -1 1 2 3
2 1 1 -0 -1 -2 -2 -3 -4 -5 -6 -6 -7 -8 -9 -10 -11 -11 -10 -9 -9 -9 -9 -9 -10 -10 -10 -10 -10 -10 -10 -9 -8 -7 -6 -5 -4 -3 -2 -1 1 2 3
2 1 0 -0 -1 -2 -2 -3 -4 -5 -6 -7 -8 -8 -9 -10 -10 -12 -12 -10 -10 -10 -10 -10 -10 -10 -10 -10 -10 -10 -10 -10 -9 -8 -7 -6 -5 -3 -2 -1 0 2 3
2 1 0 -0 -1 -2 -2 -3 -4 -5 -6 -7 -7 -8 -9 -10 -10 -11 -12 -11 -11 -10 -10 -11 -11 -10 -10 -11 -11 -11 -11 -10 -9 -8 -7 -7 -6 -5 -3 -2 -0 1 2
2 1 0 -0 -1 -2 -3 -3 -4 -5 -6 -7 -7 -8 -9 -9 -9 -10 -11 -11 -11 -11 -11 -11 -11 -11 -11 -11 -11 -11 -11 -10 -10 -9 -8 -7 -6 -5 -4 -3 -1 0 2
2 1 0 -0 -1 -2 -3 -3 -4 -5 -5 -6 -7 -8 -8 -9 -9 -10 -10 -11 -12 -11 -11 -11 -11 -11 -11 -11 -11 -11 -11 -10 -10 -9 -9 -8 -7 -6 -5 -4 -3 -1 0
2 1 0 -0 -1 -2 -3 -3 -4 -4 -5 -6 -7 -8 -8 -8 -9 -9 -9 -10 -12 -12 -11 -11 -11 -11 -11 -11 -11 -11 -11 -10 -10 -9 -9 -8 -7 -7 -6 -5 -4 -2 -1
2 1 0 -0 -1 -2 -3 -3 -4 -4 -5 -6 -7 -8 -8 -8 -9 -9 -9 -10 -11 -12 -12 -11 -11 -11 -11 -11 -11 -11 -11 -11 -10 -10 -9 -9 -8 -7 -6 -5 -4 -3 -2
2 1 0 -1 -1 -2 -2 -3 -4 -4 -5 -6 -7 -8 -8 -8 -9 -9 -9 -10 -11 -11 -12 -12 -11 -11 -11 -11 -11 -11 -11 -11 -10 -10 -10 -9 -8 -7 -6 -5 -5 -4 -2
1 1 -0 -1 -1 -2 -2 -3 -4 -4 -5 -6 -7 -7 -8 -8 -9 -9 -9 -10 -11 -11 -12 -12 -11 -11 -11 -11 -11 -11 -11 -11 -11 -10 -10 -9 -8 -8 -7 -6 -5 -4 -3
1 0 -0 -1 -1 -2 -2 -3 -3 -4 -5 -6 -7 -8 -8 -8 -9 -9 -10 -10 -10 -11 -11 -11 -11 -11 -11 -11 -11 -11 -11 -11 -11 -11 -10 -10 -9 -8 -7 -6 -5 -4 -3
1 0 -0 -1 -1 -2 -2 -3 -4 -4 -5 -6 -7 -7 -8 -8 -9 -9 -10 -10 -10 -10 -10 -11 -11 -11 -11 -11 -11 -12 -12 -12 -12 -11 -11 -10 -9 -8 -7 -6 -5 -4 -3
1 0 -1 -1 -2 -2 -2 -3 -4 -4 -5 -6 -7 -7 -8 -8 -9 -9 -10 -10 -10 -10 -10 -10 -10 -11 -11 -11 -11 -12 -12 -12 -12 -12 -11 -10 -9 -8 -7 -6 -5 -4 -3
1 -0 -1 -1 -2 -2 -2 -3 -4 -5 -5 -6 -7 -7 -8 -8 -9 -9 -10 -10 -10 -9 -9 -10 -10 -11 -11 -11 -11 -12 -12 -12 -12 -12 -11 -11 -10 -9 -7 -6 -5 -4 -3
0 -0 -1 -1 -2 -2 -3 -3 -4 -5 -6 -7 -7 -8 -8 -8 -9 -9 -9 -9 -9 -9 -10 -10 -11 -11 -11 -11 -12 -12 -12 -12 -12 -12 -12 -11 -10 -9 -7 -6 -5 -4 -3
0 -0 -1 -1 -2 -2 -3 -3 -4 -5 -6 -6 -7 -8 -8 -8 -9 -9 -9 -9 -9 -10 -10 -11 -11 -11 -11 -11 -11 -11 -12 -12 -12 -12 -12 -12 -10 -9 -8 -6 -5 -4 -3
0 -0 -1 -2 -2 -2 -3 -4 -4 -5 -5 -6 -7 -8 -8 -9 -9 -9 -9 -9 -9 -10 -10 -11 -11 -11 -11 -12 -12 -12 -12 -12 -12 -12 -12 -12 -11 -10 -8 -6 -5 -4 -3
0 -1 -1 -2 -2 -3 -3 -4 -4 -5 -5 -6 -7 -8 -8 -9 -9 -9 -9 -9 -10 -10 -10 -11 -11 -11 -11 -12 -12 -13 -13 -13 -13 -13 -12 -12 -11 -10 -8 -6 -5 -4 -3

GEFSMA_850_meantemp_060.txt.gz
Temperature
6 5 5 5 4 4 4 3 3 3 3 2 2 2 1 1 0 -0 -0 -1 -1 -2 -2 -3 -4 -4 -4 -4 -4 -3 -3 -3 -3 -2 -2 -2 -2 -1 -1 -1 -0 0 1
6 5 5 5 4 4 3 3 3 2 2 2 2 1 1 0 -0 -1 -1 -2 -2 -2 -3 -4 -5 -5 -5 -5 -4 -4 -4 -4 -4 -3 -3 -3 -2 -2 -2 -1 -1 -0 0
6 5 5 4 4 4 3 3 2 2 2 2 1 1 1 0 -0 -1 -2 -2 -3 -3 -4 -4 -5 -6 -6 -6 -5 -5 -5 -5 -4 -4 -4 -3 -3 -3 -2 -2 -2 -1 -1
5 5 5 4 4 3 3 2 2 2 1 1 1 0 0 -0 -0 -1 -2 -3 -3 -4 -5 -5 -6 -6 -6 -6 -6 -6 -5 -5 -5 -5 -4 -4 -4 -3 -3 -3 -2 -2 -1
6 5 5 4 4 3 3 2 2 1 1 0 0 0 -0 -0 -1 -1 -2 -3 -3 -4 -5 -5 -6 -6 -7 -7 -7 -6 -6 -6 -6 -5 -5 -5 -4 -4 -3 -3 -3 -2 -2
6 5 5 4 4 3 3 2 1 1 1 -0 -1 -1 -1 -1 -1 -1 -2 -3 -3 -4 -5 -5 -6 -6 -7 -7 -7 -7 -7 -6 -6 -6 -6 -5 -5 -4 -4 -3 -3 -2 -2
6 5 5 4 4 3 3 2 1 1 0 -1 -2 -3 -3 -2 -1 -2 -2 -3 -3 -4 -4 -5 -6 -6 -7 -7 -7 -7 -7 -7 -7 -6 -6 -6 -5 -5 -4 -4 -3 -3 -2
6 5 5 4 4 3 2 2 1 1 -0 -1 -3 -5 -4 -4 -4 -3 -3 -3 -3 -4 -4 -5 -6 -6 -7 -7 -7 -7 -8 -8 -7 -7 -6 -6 -6 -5 -5 -4 -4 -3 -3
7 6 5 4 4 3 3 2 1 0 -0 -2 -2 -4 -5 -4 -4 -5 -5 -4 -4 -4 -5 -6 -6 -7 -7 -8 -8 -8 -8 -8 -8 -7 -7 -6 -6 -5 -5 -4 -4 -3 -3
8 7 6 5 4 3 3 2 1 0 -0 -1 -3 -3 -4 -5 -7 -6 -5 -6 -6 -6 -6 -7 -7 -7 -8 -8 -8 -8 -8 -9 -8 -8 -7 -7 -6 -6 -5 -5 -4 -4 -3
9 8 7 5 4 4 3 2 1 1 -0 -1 -2 -3 -4 -6 -7 -9 -7 -6 -6 -6 -6 -7 -7 -7 -8 -8 -8 -8 -9 -9 -9 -8 -8 -7 -7 -6 -6 -5 -5 -4 -4
10 9 7 6 5 4 3 2 1 1 -0 -1 -2 -3 -4 -6 -6 -7 -7 -7 -6 -6 -6 -7 -7 -7 -7 -8 -8 -8 -9 -9 -9 -8 -8 -8 -7 -7 -6 -6 -5 -5 -4
11 11 9 7 5 4 3 2 1 1 -0 -1 -1 -2 -3 -4 -5 -7 -8 -7 -7 -7 -7 -7 -6 -6 -7 -7 -8 -8 -9 -9 -9 -9 -9 -8 -8 -8 -7 -7 -6 -6 -5
11 10 9 7 6 4 3 2 1 1 -0 -1 -1 -2 -3 -4 -5 -6 -7 -8 -8 -8 -7 -6 -6 -6 -7 -7 -8 -9 -9 -9 -9 -9 -9 -9 -8 -8 -8 -7 -7 -6 -6
11 9 8 7 5 4 3 2 1 1 -0 -1 -1 -2 -3 -3 -5 -6 -7 -8 -9 -9 -8 -6 -7 -7 -7 -8 -8 -9 -9 -9 -9 -9 -9 -9 -8 -8 -8 -8 -7 -7 -6
10 8 7 6 5 3 2 2 1 0 -0 -1 -1 -2 -3 -3 -4 -5 -7 -8 -9 -10 -9 -8 -7 -7 -8 -8 -8 -9 -9 -9 -9 -9 -9 -9 -9 -8 -8 -8 -8 -7 -7
9 7 6 5 4 3 2 1 1 0 -0 -1 -1 -2 -2 -3 -4 -5 -7 -8 -9 -9 -10 -9 -8 -8 -8 -8 -8 -8 -9 -9 -9 -9 -9 -9 -9 -9 -9 -8 -8 -7 -7
8 7 5 4 3 2 1 1 0 -0 -1 -1 -1 -2 -3 -3 -4 -5 -6 -7 -8 -9 -9 -9 -9 -8 -8 -8 -8 -9 -9 -9 -9 -9 -9 -9 -9 -9 -9 -8 -8 -8 -7
7 6 5 3 2 1 0 0 0 -1 -1 -1 -2 -2 -3 -4 -4 -5 -6 -7 -8 -9 -9 -9 -9 -9 -8 -8 -8 -8 -9 -9 -9 -9 -9 -9 -9 -9 -9 -9 -8 -8 -7
7 5 4 3 1 0 -0 -0 -0 -1 -2 -2 -2 -3 -3 -4 -4 -5 -6 -7 -8 -9 -9 -9 -9 -8 -8 -8 -8 -8 -9 -9 -9 -9 -9 -9 -9 -9 -9 -9 -9 -8 -8
6 4 3 1 0 -1 -1 -1 -2 -2 -2 -2 -2 -3 -3 -3 -4 -5 -6 -6 -7 -8 -8 -8 -8 -8 -8 -8 -8 -8 -9 -9 -9 -9 -10 -10 -10 -10 -9 -9 -9 -9 -8
5 4 3 1 -0 -1 -2 -2 -3 -3 -3 -3 -3 -3 -3 -4 -4 -5 -6 -7 -7 -8 -8 -8 -8 -8 -8 -8 -8 -9 -9 -9 -9 -9 -10 -10 -10 -10 -10 -10 -9 -9 -9
5 4 2 1 -0 -2 -2 -3 -3 -4 -3 -3 -3 -4 -4 -4 -4 -5 -6 -7 -8 -8 -8 -8 -8 -8 -9 -9 -9 -10 -10 -10 -10 -10 -10 -10 -10 -10 -10 -10 -9 -9 -9
4 3 2 0 -1 -2 -3 -4 -4 -4 -4 -3 -3 -4 -4 -4 -5 -6 -7 -7 -7 -8 -8 -8 -9 -9 -9 -9 -10 -10 -10 -10 -11 -11 -11 -11 -10 -10 -10 -10 -9 -9 -8
3 2 1 -1 -2 -3 -4 -4 -5 -5 -5 -4 -4 -4 -4 -4 -5 -6 -7 -8 -8 -8 -8 -8 -9 -9 -9 -9 -10 -10 -11 -11 -11 -11 -11 -11 -11 -11 -10 -10 -9 -9 -8
2 1 -1 -2 -3 -4 -4 -4 -5 -5 -5 -5 -4 -5 -4 -4 -5 -6 -7 -8 -8 -8 -8 -9 -9 -9 -9 -10 -10 -11 -12 -12 -12 -12 -11 -11 -11 -11 -11 -10 -9 -8 -8